Date,TemperatureHighF,TemperatureAvgF,TemperatureLowF,DewpointHighF,DewpointAvgF,DewpointLowF,HumidityHigh,HumidityAvg,HumidityLow,PressureMaxIn,PressureMinIn,WindSpeedMaxMPH,WindSpeedAvgMPH,GustSpeedMaxMPH,PrecipitationSumIn
2014-1-1,22,16,8,14,10,3,91,77,58,30.35,30.07,19,9,23,0.00
2014-1-2,10,1,-6,3,-4,-9,92,79,72,30.39,30.00,5,2,22,0.00
2014-1-3,10,0,-6,6,-4,-9,89,82,66,30.32,29.79,22,8,22,0.00
2014-1-4,27,12,-3,14,4,-8,86,68,48,30.42,30.15,14,6,21,0.00
2014-1-5,30,24,16,28,17,9,94,75,59,30.26,30.01,13,2,16,0.01
2014-1-6,50,42,30,49,40,20,98,94,63,30.00,29.16,28,7,32,0.64
2014-1-7,31,15,8,21,3,-4,74,60,50,30.04,29.32,35,22,41,0.00
2014-1-8,21,15,9,10,5,-2,74,63,52,30.34,30.03,31,13,33,0.00
2014-1-9,25,18,16,11,9,6,77,66,49,30.58,30.32,26,6,27,0.00
2014-1-10,31,24,14,29,21,9,92,87,76,30.53,30.22,15,3,17,0.00
2014-1-11,48,39,30,48,38,28,100,96,92,30.23,29.10,18,3,21,0.54
2014-1-12,47,41,34,46,34,26,98,76,56,29.83,29.14,31,10,31,0.01
2014-1-13,42,37,31,40,31,26,93,80,70,30.04,29.83,14,3,19,0.00
2014-1-14,46,42,37,45,41,36,97,96,93,29.84,29.49,20,3,20,1.00
2014-1-15,42,38,32,40,36,-100,97,94,88,29.97,29.60,20,2,20,0.01
2014-1-16,36,34,31,35,33,30,97,97,96,29.88,29.81,12,0,12,0.01
2014-1-17,39,36,34,38,34,27,98,92,76,29.90,29.83,11,2,12,0.00
2014-1-18,34,32,29,31,30,26,96,92,77,29.87,29.60,5,0,5,0.02
2014-1-19,32,30,29,31,28,24,97,91,79,29.64,29.38,28,6,28,0.01
2014-1-20,36,30,14,29,24,4,86,78,61,29.81,29.40,30,10,31,0.09
2014-1-21,14,10,5,5,-2,-5,70,60,49,30.03,29.81,25,6,28,0.00
2014-1-22,17,9,3,5,-1,-5,77,64,52,29.90,29.56,27,8,27,0.00
2014-1-23,20,12,5,7,2,-3,76,64,50,30.02,29.79,26,12,27,0.00
2014-1-24,17,11,5,5,0,-3,77,60,46,30.15,29.97,25,11,25,0.00
2014-1-25,36,28,17,29,21,4,92,75,55,29.97,29.17,27,9,35,0.00
2014-1-26,26,19,13,22,7,-3,89,60,43,29.84,29.18,43,18,49,0.01
2014-1-27,40,27,20,38,18,0,95,69,39,29.88,29.39,36,11,38,0.04
2014-1-28,20,16,12,4,0,-4,66,50,36,30.22,29.88,30,12,33,0.00
2014-1-29,24,18,14,7,1,-4,62,48,33,30.16,29.84,33,10,35,0.00
2014-1-30,28,21,15,19,10,3,72,62,54,30.36,30.09,26,6,26,0.00
2014-1-31,36,32,26,24,21,16,85,66,51,30.11,29.91,21,6,21,0.00
2014-2-1,37,31,25,32,24,20,84,76,60,30.29,29.96,15,1,15,0.00
2014-2-2,38,36,35,35,34,31,95,90,79,29.99,29.78,10,1,14,0.01
2014-2-3,35,30,22,33,20,14,94,66,57,30.24,29.98,16,1,16,0.00
2014-2-4,29,24,16,23,17,12,85,77,58,30.40,30.23,7,1,8,0.00
2014-2-5,26,22,18,21,18,14,100,86,65,30.31,29.67,21,1,21,0.00
2014-2-6,24,19,12,18,13,8,91,77,56,30.20,29.88,16,3,18,0.09
2014-2-7,28,22,15,15,12,10,81,66,53,30.14,30.05,22,9,25,0.00
2014-2-8,29,22,17,14,10,6,69,59,40,30.18,30.06,22,6,24,0.01
2014-2-9,26,20,15,18,11,7,89,68,53,30.15,29.90,9,1,9,0.00
2014-2-10,25,21,16,20,14,7,92,75,55,30.13,29.84,24,6,26,0.00
2014-2-11,23,17,10,10,7,0,79,64,48,30.35,30.13,30,9,31,0.00
2014-2-12,27,19,8,16,5,-2,74,56,30,30.50,30.35,19,4,19,0.00
2014-2-13,31,25,20,30,20,11,100,82,60,30.38,29.09,15,2,17,0.00
2014-2-14,34,31,29,33,28,21,97,88,71,29.60,28.70,36,9,38,0.00
2014-2-15,33,29,21,31,26,18,100,89,70,29.83,29.41,19,2,19,0.00
2014-2-16,29,25,19,28,16,7,96,70,55,29.87,29.34,41,17,43,0.00
2014-2-17,25,18,12,8,3,0,64,52,37,30.31,29.87,36,17,37,0.00
2014-2-18,33,20,7,29,14,-1,100,79,58,30.34,29.84,15,1,18,0.00
2014-2-19,34,30,22,34,28,20,100,93,91,30.02,29.68,11,2,13,0.01
2014-2-20,44,37,30,34,30,26,96,77,50,30.14,29.71,16,4,19,0.28
2014-2-21,40,36,33,40,35,32,97,95,89,30.14,29.58,23,2,25,0.64
2014-2-22,44,38,34,35,32,26,97,80,51,29.85,29.72,22,6,22,0.00
2014-2-23,41,39,37,34,29,20,83,69,44,29.90,29.68,18,6,18,0.00
2014-2-24,41,31,21,24,15,9,63,52,39,29.82,29.61,30,14,32,0.00
2014-2-25,23,20,17,14,8,4,67,59,47,29.89,29.77,24,10,26,0.00
2014-2-26,27,19,11,17,8,0,77,62,44,29.86,29.66,32,9,32,0.00
2014-2-27,24,18,8,15,7,-2,77,63,51,29.80,29.55,33,6,33,0.00
2014-2-28,22,16,11,13,1,-5,74,50,32,30.40,29.71,33,12,33,0.00
2014-3-1,33,21,8,25,12,-2,74,66,53,30.40,29.97,18,4,18,0.00
2014-3-2,32,29,19,23,17,7,69,61,53,29.99,29.92,9,4,14,0.00
2014-3-3,22,16,10,7,1,-5,67,51,37,30.24,29.98,21,8,24,0.00
2014-3-4,27,16,4,17,4,-8,68,58,49,30.32,30.18,6,2,11,0.00
2014-3-5,22,17,14,12,8,4,85,69,53,30.46,30.22,8,2,11,0.00
2014-3-6,29,19,8,17,2,-8,66,49,25,30.59,30.45,9,4,14,0.00
2014-3-7,34,26,17,28,17,3,89,67,39,30.45,29.92,6,2,9,0.00
2014-3-8,45,32,23,31,25,18,94,76,45,29.91,29.62,14,4,18,0.01
2014-3-9,35,29,23,17,13,6,67,51,36,29.88,29.78,17,6,20,0.00
2014-3-10,34,29,25,29,19,6,82,68,42,29.82,29.59,4,1,14,0.00
2014-3-11,45,38,33,39,33,27,95,83,63,29.67,29.43,9,2,14,0.11
2014-3-12,40,36,26,38,34,25,96,90,76,29.68,29.06,6,1,14,0.97
2014-3-13,26,18,16,25,13,6,96,79,58,29.77,28.98,36,18,36,0.00
2014-3-14,36,24,15,28,12,3,73,60,48,30.07,29.78,26,8,28,0.00
2014-3-15,46,39,35,38,34,27,92,80,62,29.83,29.57,23,5,23,0.10
2014-3-16,38,24,16,28,8,-2,73,51,41,30.17,29.71,37,20,41,0.00
2014-3-17,26,18,11,6,0,-4,58,46,32,30.17,29.98,21,6,21,0.00
2014-3-18,32,22,13,21,9,0,78,56,33,30.31,30.12,12,2,12,0.00
2014-3-19,37,30,21,28,24,18,95,77,62,30.36,30.04,10,1,11,0.00
2014-3-20,44,38,34,42,34,27,96,85,64,30.04,29.47,27,6,30,0.73
2014-3-21,37,35,32,29,25,22,75,66,56,29.92,29.59,32,14,34,0.00
2014-3-22,39,34,27,36,26,20,91,74,63,29.97,29.58,33,6,33,0.03
2014-3-23,35,30,16,26,18,4,79,62,39,30.05,29.81,30,10,30,0.00
2014-3-24,27,20,13,8,4,0,67,51,38,30.09,29.96,29,12,30,0.00
2014-3-25,32,25,16,19,12,2,75,59,37,30.07,29.97,17,3,18,0.00
2014-3-26,34,29,25,20,16,11,71,59,40,29.97,29.44,47,13,51,0.00
2014-3-27,37,29,18,29,12,1,78,50,33,30.21,29.84,34,11,38,0.00
2014-3-28,43,38,34,42,32,25,95,80,69,30.15,29.86,20,4,20,0.02
2014-3-29,51,42,36,43,37,34,96,85,57,30.22,29.92,4,1,9,0.12
2014-3-30,38,36,34,37,35,32,96,95,92,30.08,29.66,5,3,12,1.68
2014-3-31,38,34,32,32,30,28,94,85,73,29.95,29.68,8,5,20,0.09
2014-4-1,35,34,33,28,27,26,79,77,67,30.00,29.93,7,5,17,0.00
2014-4-2,40,34,30,30,22,13,91,61,40,30.10,30.01,6,1,0,0.00
2014-4-3,47,37,30,37,29,24,95,73,45,30.13,29.99,16,3,0,0.00
2014-4-4,43,36,28,37,28,21,94,72,53,30.16,29.92,6,1,0,0.28
2014-4-5,49,41,37,47,36,27,96,84,58,29.94,29.57,26,8,0,0.19
2014-4-6,48,41,35,32,27,24,71,58,38,30.11,29.80,22,8,0,0.00
2014-4-7,52,41,32,39,32,24,91,70,43,30.19,29.95,5,1,8,0.10
2014-4-8,48,44,41,47,43,39,100,96,91,29.94,29.25,20,2,20,0.79
2014-4-9,48,42,37,39,31,17,91,67,37,29.87,29.37,36,11,36,0.00
2014-4-10,47,40,31,36,29,19,76,63,49,30.07,29.87,21,6,21,0.00
2014-4-11,57,49,41,44,41,35,86,74,57,29.95,29.84,14,3,15,0.00
2014-4-12,57,49,44,43,37,28,84,65,35,30.18,29.91,14,2,18,0.00
2014-4-13,46,43,40,45,38,32,95,83,62,30.31,29.97,15,1,15,0.20
2014-4-14,57,47,38,52,44,37,96,91,80,29.98,29.76,23,4,23,0.00
2014-4-15,52,49,44,50,48,43,97,95,92,29.83,29.50,26,7,27,0.14
2014-4-16,44,34,28,43,24,16,96,71,45,30.59,29.57,33,14,33,0.15
2014-4-17,40,32,24,25,20,16,81,62,41,30.80,30.58,12,2,13,0.00
2014-4-18,42,35,28,33,29,24,92,77,65,30.66,30.20,13,1,13,0.00
2014-4-19,52,43,34,40,33,28,91,71,49,30.36,30.09,31,9,33,0.00
2014-4-20,47,41,32,36,29,21,85,64,40,30.48,30.29,15,3,16,0.00
2014-4-21,49,44,40,42,39,36,93,84,69,30.29,29.75,19,4,19,0.00
2014-4-22,52,47,42,47,44,39,94,87,77,29.75,29.39,8,1,10,0.05
2014-4-23,56,48,43,54,42,36,96,83,63,29.46,29.35,33,7,34,0.07
2014-4-24,51,45,41,36,33,30,71,62,51,29.82,29.45,43,19,43,0.00
2014-4-25,54,45,39,38,34,30,88,66,41,29.93,29.79,17,3,17,0.00
2014-4-26,46,42,40,43,40,37,98,90,81,29.85,29.77,9,1,10,0.08
2014-4-27,50,44,39,44,40,36,96,86,72,29.95,29.82,13,2,16,0.04
2014-4-28,52,47,41,42,38,35,82,73,65,30.25,29.94,15,4,17,0.00
2014-4-29,50,43,40,39,35,32,85,73,62,30.52,30.24,13,2,13,0.00
2014-4-30,41,40,40,37,36,35,86,84,82,30.55,30.50,6,1,9,0.00
2014-5-2,-90,-90,-90,-100,-100,-100,0,0,100,29.63,29.57,16,8,19,0.01
2014-5-3,-200,0,200,-100,-100,-100,0,0,100,29.78,29.66,4,2,7,0.00
2014-5-4,-90,-8,-90,-100,-100,-100,0,0,100,29.68,29.42,20,4,25,0.19
2014-5-5,-90,-39,-90,-100,-100,-100,0,0,100,29.77,29.50,19,8,21,0.01
2014-5-6,-200,0,200,-100,-100,-100,0,0,100,29.95,29.75,14,7,18,0.01
2014-5-7,-200,0,200,-100,-100,-100,0,0,100,30.12,29.95,11,4,12,0.00
2014-5-8,-200,0,200,-100,-100,-100,0,0,100,30.17,30.03,6,2,10,0.00
2014-5-9,-200,0,200,-100,-100,-100,0,0,100,30.24,30.06,2,0,7,0.06
2014-5-10,-90,-47,-90,-100,-100,-100,0,0,100,30.06,29.65,11,3,12,0.20
2014-5-11,-90,-15,-90,-100,-100,-100,0,0,100,29.94,29.67,18,4,18,0.00
2014-5-12,-200,0,200,-100,-100,-100,0,0,100,30.14,29.91,6,2,12,0.00
2014-5-13,-200,0,200,-100,-100,-100,0,0,100,30.30,30.14,5,2,8,0.00
2014-5-14,-200,0,200,-100,-100,-100,0,0,100,30.29,30.27,2,0,7,0.00
2014-5-15,-90,-54,-90,-100,-100,-100,0,0,100,30.28,30.18,6,2,10,0.00
2014-5-16,-90,-90,-90,-100,-100,-100,0,0,100,30.21,30.01,6,3,13,0.00
2014-5-17,-33,-77,-90,-100,-100,-100,0,0,100,30.01,29.86,6,3,13,0.48
2014-5-18,-6,-28,-90,-100,-100,-100,0,0,100,30.05,29.94,9,2,12,0.01
2014-5-19,-90,-1,-90,-100,-100,-100,0,0,100,29.98,29.91,22,12,27,0.04
2014-5-20,-90,-51,-90,-100,-100,-100,0,0,100,29.95,29.87,12,4,15,0.00
2014-5-21,-90,-22,-90,-100,-100,-100,0,0,100,29.97,29.91,5,1,7,0.00
2014-5-22,-90,-89,-90,-100,-100,-100,0,0,100,29.95,29.85,5,1,7,0.00
2014-5-23,-40,-64,-90,-100,-100,-100,0,0,100,29.97,29.86,3,0,6,0.08
2014-5-24,-21,-46,-90,-100,-100,-100,0,0,100,30.03,29.94,5,1,7,0.02
2014-5-25,-47,-70,-90,-100,-100,-100,0,0,100,30.06,29.94,5,2,9,0.00
2014-5-26,-38,-68,-90,-100,-100,-100,0,0,100,29.94,29.68,15,3,19,0.06
2014-5-27,-66,-87,-90,-100,-100,-100,0,0,100,29.99,29.73,2,1,10,0.71
2014-5-28,-18,-35,-66,-100,-100,-100,0,0,100,30.17,29.95,7,1,9,0.10
2014-5-29,-24,-48,-90,-100,-100,-100,0,0,100,30.22,30.10,5,2,8,0.01
2014-5-30,-90,-90,-90,-100,-100,-100,0,0,100,30.10,29.99,4,1,12,0.01
2014-5-31,-90,-75,-90,-100,-100,-100,0,0,100,30.23,30.04,7,1,7,0.00
2014-6-1,-90,-14,-90,-100,-100,-100,0,0,100,30.31,30.18,5,1,9,0.00
2014-6-2,-90,-30,-90,-100,-100,-100,0,0,100,30.18,29.95,5,2,8,0.00
2014-6-3,-90,-28,-90,-100,-100,-100,0,0,100,30.01,29.92,4,2,6,0.00
2014-6-4,-90,-62,-90,-100,-100,-100,0,0,100,29.92,29.77,2,0,3,0.58
2014-6-5,8,-47,-90,-100,-100,-100,0,0,100,29.77,29.60,10,1,11,0.21
2014-6-6,10,-24,-90,-100,-100,-100,0,0,100,29.77,29.60,18,8,21,0.01
2014-6-7,-90,-74,-90,-100,-100,-100,0,0,100,29.85,29.77,9,2,11,0.00
2014-6-8,-90,-12,-90,-100,-100,-100,0,0,100,29.89,29.80,6,1,10,0.00
2014-6-9,-90,-4,-90,-100,-100,-100,0,0,100,29.90,29.81,5,1,9,0.00
2014-6-10,-90,-23,-90,-100,-100,-100,0,0,100,30.08,29.88,6,1,9,0.01
2014-6-11,-90,-2,-90,-100,-100,-100,0,0,100,30.17,30.08,5,1,7,0.00
2014-6-12,-200,0,200,-100,-100,-100,0,0,100,30.15,30.09,2,0,3,0.00
2014-6-13,-90,-67,-90,-100,-100,-100,0,0,100,30.09,29.76,5,1,12,2.62
2014-6-14,-22,-52,-90,-100,-100,-100,0,0,100,29.82,29.75,6,1,8,0.00
2014-6-15,-68,-70,-90,-100,-100,-100,0,0,100,29.98,29.82,20,10,23,0.07
2014-6-16,-200,0,200,-100,-100,-100,0,0,100,30.09,29.97,8,2,11,0.00
2014-6-17,-90,-2,-90,-100,-100,-100,0,0,100,30.01,29.79,4,1,7,0.00
2014-6-18,-90,-54,-90,-100,-100,-100,0,0,100,29.83,29.57,26,9,29,0.02
2014-6-19,-200,0,200,-100,-100,-100,0,0,100,29.91,29.82,18,8,22,0.00
2014-6-20,-200,0,200,-100,-100,-100,0,0,100,29.90,29.82,21,10,23,0.00
2014-6-21,-200,0,200,-100,-100,-100,0,0,100,29.90,29.80,11,4,15,0.00
2014-6-22,-200,0,200,-100,-100,-100,0,0,100,30.00,29.86,5,1,13,0.00
2014-6-23,-200,0,200,-100,-100,-100,0,0,100,30.11,30.00,6,1,13,0.00
2014-6-24,-200,0,200,-100,-100,-100,0,0,100,30.10,29.91,6,3,10,0.00
2014-6-25,-90,-37,-90,-100,-100,-100,0,0,100,29.92,29.83,5,2,11,0.74
2014-6-26,-90,-90,-90,-100,-100,-100,0,0,100,29.96,29.75,6,2,15,0.68
2014-6-27,-90,-54,-90,-100,-100,-100,0,0,100,30.15,29.96,6,1,10,0.00
2014-6-28,-200,0,200,-100,-100,-100,0,0,100,30.22,30.15,5,1,8,0.00
2014-6-29,-200,0,200,-100,-100,-100,0,0,100,30.18,30.01,6,2,9,0.00
2014-6-30,-200,0,200,-100,-100,-100,0,0,100,30.01,29.81,6,2,11,0.00
2014-7-1,-90,-16,-90,-100,-100,-100,0,0,100,29.83,29.70,6,2,12,0.00
2014-7-2,-90,-90,-90,-100,-100,-100,0,0,100,29.91,29.70,14,3,18,0.32
2014-7-3,-9,-76,-90,-100,-100,-100,0,0,100,29.94,29.85,5,1,7,0.10
2014-7-4,50,25,-8,-100,-100,-100,0,0,100,29.95,29.76,10,1,11,1.63
2014-7-5,50,18,-38,-100,-100,-100,0,0,100,29.83,29.62,26,13,31,0.58
2014-7-6,-37,-56,-89,-100,-100,-100,0,0,100,29.86,29.73,16,6,23,0.00
2014-7-7,-89,-90,-90,-100,-100,-100,0,0,100,29.77,29.62,9,2,12,0.24
2014-7-8,-82,-89,-90,-100,-100,-100,0,0,100,29.72,29.62,6,2,10,0.00
2014-7-9,-66,-84,-90,-100,-100,-100,0,0,100,29.86,29.57,7,3,11,0.00
2014-7-10,-87,-90,-90,-100,0,200,0,0,100,30.11,29.81,5,1,7,0.01
2014-7-11,-90,-90,-90,-100,0,200,0,0,100,30.20,30.10,2,0,6,0.03
2014-7-12,69,65,64,62,62,61,91,87,78,30.09,30.06,0,0,0,0.19
2014-7-13,77,68,63,65,62,59,95,81,61,30.06,29.82,0,0,0,0.08
2014-7-14,84,69,62,72,66,61,98,89,65,29.84,29.77,5,1,9,0.03
2014-7-15,71,66,64,69,66,63,99,97,91,29.81,29.69,7,3,13,0.71
2014-7-16,67,65,62,67,65,61,100,99,98,29.77,29.71,5,2,8,0.47
2014-7-17,76,68,61,65,62,57,100,84,63,29.95,29.76,5,2,8,0.00
2014-7-18,74,66,59,62,58,55,97,76,55,30.18,30.01,5,2,4,0.00
2014-7-19,78,67,59,66,60,56,96,82,55,30.23,30.17,4,1,5,0.00
2014-7-20,71,65,59,65,62,56,98,89,75,30.19,30.12,3,1,7,0.00
2014-7-21,76,65,58,66,61,56,97,89,66,30.17,30.09,6,1,8,0.00
2014-7-22,76,68,62,68,64,60,95,87,71,30.10,29.87,5,2,10,0.00
2014-7-23,76,72,67,70,68,65,97,88,80,29.87,29.65,8,3,12,0.06
2014-7-24,77,69,62,68,64,59,98,87,64,29.85,29.68,5,1,7,0.26
2014-7-25,74,66,58,63,60,54,93,79,63,29.89,29.83,6,2,9,0.00
2014-7-26,75,69,66,66,63,60,90,80,69,29.89,29.78,5,2,11,0.00
2014-7-27,69,66,64,66,65,61,98,94,84,29.81,29.63,12,2,13,0.26
2014-7-28,74,67,63,70,66,63,99,97,84,29.64,29.41,14,2,15,0.61
2014-7-29,73,66,62,65,62,59,99,85,68,29.89,29.44,12,3,13,0.01
2014-7-30,72,65,61,68,63,59,100,94,81,30.00,29.89,11,1,12,0.45
2014-7-31,72,66,61,66,63,60,99,92,80,30.09,29.99,11,1,11,0.01
2014-8-1,77,69,63,68,65,62,97,88,72,30.18,30.09,5,1,6,0.00
2014-8-2,73,68,62,68,64,60,96,89,73,30.18,30.08,9,2,11,0.00
2014-8-3,70,64,60,64,61,59,98,93,77,30.09,30.00,8,1,10,0.00
2014-8-4,73,65,61,67,64,60,98,95,81,30.01,29.94,8,1,12,0.00
2014-8-5,79,70,64,70,66,63,99,89,67,29.97,29.82,10,1,10,0.01
2014-8-6,79,68,62,69,65,61,99,91,66,29.83,29.71,13,2,13,0.87
2014-8-7,74,64,59,64,60,56,97,86,61,29.86,29.76,18,3,20,0.03
2014-8-8,80,69,61,66,61,57,93,76,49,29.95,29.84,14,4,14,0.00
2014-8-9,78,70,63,67,62,59,95,78,56,30.02,29.93,13,2,13,0.02
2014-8-10,79,69,62,66,62,58,96,79,48,30.09,30.01,6,1,8,0.00
2014-8-11,78,68,62,68,64,60,97,87,66,30.10,30.04,8,1,9,0.01
2014-8-12,75,68,63,68,65,62,100,92,77,30.10,30.03,12,1,12,0.00
2014-8-13,67,65,63,66,64,62,99,96,91,30.03,29.58,19,2,23,1.85
2014-8-14,74,67,62,65,61,55,99,83,58,29.79,29.53,13,4,15,0.04
2014-8-15,70,63,57,65,59,55,96,87,74,29.83,29.78,8,1,9,0.00
2014-8-16,70,64,60,62,59,56,90,82,67,29.88,29.81,12,2,12,0.00
2014-8-17,71,66,62,64,61,58,92,83,71,29.83,29.70,20,3,21,0.00
2014-8-18,72,66,61,60,57,53,90,74,56,29.81,29.69,26,8,26,0.02
2014-8-19,71,62,57,61,56,53,91,81,60,29.91,29.80,8,2,8,0.00
2014-8-20,74,65,58,66,60,56,96,84,64,30.02,29.91,9,2,9,0.00
2014-8-21,68,63,60,65,61,58,98,92,71,30.07,30.00,6,0,6,0.02
2014-8-22,71,64,59,64,60,56,97,89,75,30.10,30.04,7,0,11,0.00
2014-8-23,72,65,59,62,59,55,96,84,59,30.10,30.06,11,1,11,0.00
2014-8-24,76,67,57,67,61,56,97,83,66,30.10,30.02,7,1,7,0.00
2014-8-25,80,71,65,69,64,61,95,80,63,30.10,30.02,9,1,9,0.00
2014-8-26,73,68,63,68,65,62,98,90,79,30.10,29.93,12,2,14,0.00
2014-8-27,80,72,66,71,67,64,95,86,68,29.93,29.75,11,1,12,0.00
2014-8-28,74,69,63,66,58,51,91,70,45,29.91,29.71,25,8,28,0.00
2014-8-29,71,63,57,58,54,50,87,74,50,30.21,29.90,15,3,15,0.00
2014-8-30,68,63,59,63,59,55,95,87,72,30.24,30.04,15,3,17,0.00
2014-8-31,74,68,63,71,65,61,98,92,82,30.05,29.87,14,3,14,0.75
2014-9-1,80,71,64,73,68,64,99,93,75,29.91,29.84,7,1,7,0.01
2014-9-2,74,68,64,71,67,64,99,96,86,29.87,29.65,9,1,11,0.00
2014-9-3,78,72,65,69,63,55,99,76,47,29.99,29.60,24,6,25,0.01
2014-9-4,76,67,60,64,61,57,94,80,55,30.13,30.00,9,2,13,0.00
2014-9-5,77,70,63,69,65,62,96,86,73,30.08,29.86,13,2,13,0.00
2014-9-6,77,70,66,73,68,63,98,92,79,29.87,29.64,23,4,23,0.26
2014-9-7,72,64,58,63,59,52,98,83,52,30.17,29.83,14,2,14,0.04
2014-9-8,70,61,55,58,54,48,94,80,46,30.37,30.17,12,1,12,0.00
2014-9-9,68,59,51,58,54,50,98,85,60,30.37,30.17,8,1,10,0.00
2014-9-10,68,60,55,61,58,54,98,92,75,30.18,29.99,9,1,9,0.00
2014-9-11,67,63,58,66,62,58,99,95,79,30.00,29.69,21,3,22,0.16
2014-9-12,67,59,52,59,50,45,87,71,52,30.21,29.79,22,6,22,0.00
2014-9-13,64,55,47,58,50,45,98,84,62,30.28,30.05,14,1,15,0.09
2014-9-14,64,56,49,57,48,43,97,76,55,30.18,30.03,25,7,25,0.00
2014-9-15,60,53,46,53,47,42,92,80,61,30.20,30.04,9,2,9,0.00
2014-9-16,61,57,55,58,54,52,100,92,82,30.05,29.89,10,2,10,0.09
2014-9-17,67,58,52,58,54,50,98,87,54,29.96,29.88,9,1,9,0.01
2014-9-18,69,58,49,59,50,39,98,77,53,30.12,29.84,21,3,25,0.01
2014-9-19,58,50,42,40,35,24,79,59,31,30.37,30.12,15,3,15,0.00
2014-9-20,62,56,46,58,50,32,90,79,48,30.34,30.01,18,4,19,0.00
2014-9-21,67,62,59,65,61,57,100,96,88,30.02,29.49,12,1,12,0.23
2014-9-22,68,62,53,64,55,41,99,78,54,29.99,29.42,36,10,36,0.01
2014-9-23,66,56,50,56,47,40,92,72,58,30.36,29.98,21,5,21,0.00
2014-9-24,62,56,50,52,50,43,95,83,53,30.63,30.36,8,1,10,0.00
2014-9-25,61,55,50,55,52,50,98,90,69,30.52,30.21,8,1,9,0.01
2014-9-26,70,59,50,61,55,49,98,86,65,30.21,30.08,7,1,7,0.01
2014-9-27,78,65,57,65,58,55,97,81,57,30.11,30.06,6,1,7,0.00
2014-9-28,72,64,58,65,60,57,98,88,72,30.10,29.91,9,1,11,0.00
2014-9-29,71,61,55,64,58,53,98,89,75,30.02,29.88,4,1,0,0.01
2014-9-30,61,56,53,56,53,51,94,90,82,30.03,29.97,3,1,9,0.00
2014-10-1,61,58,56,57,55,54,96,90,85,30.12,30.00,2,1,7,0.02
2014-10-2,63,55,50,54,51,48,95,87,71,30.16,30.09,7,2,8,0.00
2014-10-3,60,53,47,54,50,45,95,89,76,30.12,29.87,7,1,9,0.00
2014-10-4,60,58,55,60,57,53,99,98,94,29.87,29.50,9,1,11,0.10
2014-10-5,63,58,50,61,54,44,99,85,53,29.86,29.45,18,4,18,0.14
2014-10-6,62,53,45,53,46,40,95,79,45,30.13,29.86,12,2,13,0.00
2014-10-7,64,61,56,60,58,52,94,89,83,30.14,29.94,22,4,23,0.00
2014-10-8,68,63,60,61,56,47,98,81,51,29.94,29.60,19,5,24,0.60
2014-10-9,60,57,52,50,42,38,72,58,44,29.87,29.73,23,8,23,0.00
2014-10-10,61,54,48,49,42,37,80,66,48,30.00,29.87,20,4,20,0.00
2014-10-11,57,49,45,46,44,40,94,81,57,30.10,30.00,7,0,7,0.00
2014-10-12,59,52,45,49,43,38,91,73,47,30.24,30.06,20,5,20,0.00
2014-10-13,60,54,45,55,49,43,96,84,64,30.30,30.17,17,3,17,0.00
2014-10-14,66,60,57,62,58,55,95,91,85,30.18,30.08,15,4,18,0.00
2014-10-15,70,62,58,65,61,58,99,95,84,30.10,29.99,13,3,13,0.00
2014-10-16,66,63,61,65,62,60,99,97,92,29.94,29.61,5,2,0,1.04
2014-10-17,65,61,58,62,58,56,99,93,79,29.63,29.52,7,3,11,0.22
2014-10-18,64,59,56,60,57,54,98,94,85,29.59,29.42,8,3,11,0.11
2014-10-19,56,50,46,54,40,31,94,69,52,29.83,29.48,30,12,30,0.00
2014-10-20,55,48,42,42,34,29,77,60,42,29.95,29.82,24,6,24,0.00
2014-10-21,57,52,47,55,49,40,98,90,64,30.01,29.93,9,1,9,0.97
2014-10-22,52,49,48,52,49,47,99,97,96,30.08,29.91,20,3,20,0.49
2014-10-23,52,50,48,52,49,47,99,98,97,29.91,29.59,20,4,20,0.81
2014-10-24,53,50,48,48,47,45,98,92,80,29.66,29.59,19,5,19,0.25
2014-10-25,60,54,50,51,46,39,88,74,59,29.66,29.39,16,5,16,0.00
2014-10-26,57,52,47,50,46,40,98,80,62,29.57,29.33,26,7,26,0.00
2014-10-27,56,51,48,44,42,40,81,71,58,29.95,29.56,36,14,36,0.00
2014-10-28,56,52,48,51,47,42,94,82,68,30.04,29.88,18,2,18,0.00
2014-10-29,54,53,51,54,52,51,99,98,94,29.89,29.71,8,1,8,0.07
2014-10-30,58,50,43,53,44,37,97,82,62,29.95,29.75,14,2,14,0.00
2014-10-31,53,45,39,40,37,32,93,73,49,30.02,29.94,9,1,9,0.00
2014-11-1,44,42,39,42,39,36,96,91,78,29.97,29.78,18,2,18,0.30
2014-11-2,42,38,35,37,34,22,97,87,53,29.81,29.50,43,12,43,0.44
2014-11-3,51,44,37,32,24,18,61,47,32,29.99,29.63,41,20,41,0.00
2014-11-4,53,47,38,50,39,24,89,73,48,30.11,29.93,13,1,13,0.00
2014-11-5,61,54,49,50,42,34,90,67,41,30.03,29.83,30,5,30,0.00
2014-11-6,50,47,45,47,43,36,98,84,60,30.03,29.45,10,1,10,0.37
2014-11-7,47,44,40,46,39,29,98,83,67,29.63,29.34,41,15,41,0.02
2014-11-8,46,41,36,34,28,25,75,61,47,29.85,29.63,32,9,32,0.00
2014-11-9,52,46,38,44,37,31,87,70,56,29.94,29.79,14,4,14,0.00
2014-11-10,54,45,37,45,40,34,96,83,56,30.16,29.94,13,1,13,0.00
2014-11-11,57,50,44,52,48,43,98,93,82,30.14,29.94,8,1,8,0.00
2014-11-12,54,52,45,54,51,39,99,96,77,29.94,29.79,10,1,11,0.01
2014-11-13,47,43,36,40,34,28,91,70,53,30.01,29.90,14,2,16,0.01
2014-11-14,42,36,33,36,30,22,97,80,56,30.01,29.81,25,7,25,0.17
2014-11-15,37,34,31,24,22,17,74,60,46,30.26,30.00,22,10,22,0.00
2014-11-16,43,38,29,32,26,21,77,61,50,30.29,30.05,19,6,19,0.00
2014-11-17,42,38,34,37,34,28,98,88,61,30.06,29.35,13,2,13,0.60
2014-11-18,41,36,28,39,26,13,97,69,42,29.75,29.32,38,15,38,0.00
2014-11-19,37,33,27,22,17,12,70,52,38,30.03,29.74,36,12,36,0.00
2014-11-20,42,36,31,28,22,16,64,56,46,29.95,29.67,32,12,32,0.00
2014-11-21,34,30,27,22,17,10,69,56,48,30.29,29.78,39,19,39,0.00
2014-11-22,42,34,26,25,19,13,70,55,40,30.30,29.90,23,9,23,0.00
2014-11-23,55,46,42,46,39,24,95,76,49,30.09,29.90,17,3,17,0.00
2014-11-24,57,53,46,56,52,45,99,97,90,30.05,29.49,32,5,32,0.46
2014-11-25,61,54,48,56,43,30,96,70,37,30.02,29.56,20,6,20,0.00
2014-11-26,48,41,34,36,32,28,100,74,54,30.18,29.94,16,2,16,0.00
2014-11-27,37,32,27,32,29,24,98,88,74,30.00,29.65,14,2,0,0.02
2014-11-28,32,28,25,26,22,17,90,80,68,30.15,29.96,16,5,0,0.00
2014-11-29,32,27,22,24,18,15,82,68,56,30.28,30.15,12,3,6,0.05
2014-11-30,50,46,36,47,42,30,97,87,76,30.20,29.90,19,5,19,0.36
2014-12-1,58,47,34,49,39,20,85,74,55,30.40,29.88,28,7,28,0.00
2014-12-2,34,29,27,24,17,10,88,61,46,30.72,30.40,13,1,13,0.00
2014-12-3,43,34,25,40,32,24,98,94,83,30.42,29.76,27,5,27,0.24
2014-12-4,41,35,24,36,22,9,85,60,43,30.53,29.90,24,8,24,0.01
2014-12-5,38,26,17,34,18,8,91,72,54,30.70,30.45,9,1,9,0.00
2014-12-6,38,35,32,37,34,30,98,96,81,30.45,30.05,16,3,16,0.78
2014-12-7,37,28,15,36,16,2,97,62,42,30.70,30.19,32,6,32,0.00
2014-12-8,22,17,11,16,6,0,77,63,54,30.80,30.54,13,2,13,0.00
2014-12-9,40,31,22,39,29,16,98,95,77,30.54,29.61,16,2,16,1.53
2014-12-10,38,37,36,38,37,36,98,98,97,29.62,29.37,15,2,15,0.52
2014-12-11,43,39,35,41,37,34,100,95,89,29.71,29.39,17,3,17,0.14
2014-12-12,39,36,34,36,34,30,97,91,80,29.78,29.71,16,6,18,0.00
2014-12-13,37,35,33,34,32,29,96,88,80,29.74,29.67,15,10,19,0.01
2014-12-14,45,38,35,35,32,30,87,81,65,29.83,29.70,12,3,12,0.00
2014-12-15,42,34,29,32,30,27,94,83,63,30.13,29.82,11,2,14,0.00
2014-12-16,37,35,31,37,33,29,98,94,88,30.13,29.93,5,0,7,0.01
2014-12-17,43,39,37,42,39,36,99,98,93,29.93,29.58,10,3,15,0.76
2014-12-18,41,39,36,38,34,28,96,83,69,29.75,29.58,24,15,26,0.03
2014-12-19,38,34,30,29,26,23,79,73,60,30.09,29.74,20,8,24,0.00
2014-12-20,37,28,22,25,22,19,91,79,60,30.33,30.09,4,1,9,0.00
2014-12-21,36,28,22,29,25,20,92,88,75,30.33,30.27,7,2,13,0.00
2014-12-22,41,34,30,35,32,28,97,89,79,30.38,30.29,4,0,6,0.03
2014-12-23,39,37,34,38,36,33,98,98,97,30.32,30.17,2,0,4,0.29
2014-12-24,39,38,36,38,37,36,99,99,98,30.17,29.51,3,0,5,0.45
2014-12-25,51,44,38,48,38,33,100,81,59,29.79,29.36,33,8,33,0.10
2014-12-26,49,43,37,36,33,29,84,67,46,30.04,29.79,14,6,16,0.00
2014-12-27,48,42,36,40,35,31,88,77,64,30.12,29.89,10,1,10,0.00
2014-12-28,47,44,39,45,39,30,97,86,67,29.89,29.61,18,5,18,0.49
2014-12-29,39,34,24,32,20,8,85,56,37,30.18,29.87,27,9,27,0.00
2014-12-30,27,23,19,12,6,0,63,49,41,30.28,30.19,18,6,18,0.00
2014-12-31,27,23,16,14,9,2,69,56,42,30.23,30.03,23,9,25,0.00
2015-1-1,33,28,24,18,14,8,70,54,46,30.03,29.80,26,11,26,0.00
2015-1-2,35,31,24,26,18,5,71,57,45,30.39,29.81,25,12,25,0.00